• In France
  • List of Countries
  • For 7 days
  • Water Temperature
  • Satellite Maps
  • Weather Map
  • Weather Widgets
  • user-avatar
    Login

    Hourly Weather Madingou

    Today, 13 December, Wednesday

    Time Temperature Precipitation Wind Pressure Humidity
    00:00 +26°C° 0.6 mm 1 mps 745 mmHg 95%
    01:00 +25°C° 0 mm 1 mps 745 mmHg 97%
    02:00 +25°C° 0.1 mm 1 mps 745 mmHg 97%
    03:00 +25°C° 0.1 mm 1 mps 745 mmHg 97%
    04:00 +25°C° 0.1 mm 1 mps 745 mmHg 98%
    05:00 +25°C° 0 mm 1 mps 745 mmHg 97%
    06:00 +25°C° 0 mm 1 mps 745 mmHg 96%
    07:00 +26°C° 0 mm 1 mps 745 mmHg 94%
    08:00 +27°C° 0.6 mm 1 mps 745 mmHg 90%
    09:00 +29°C° 0.6 mm 1 mps 745 mmHg 85%
    10:00 +30°C° 0.6 mm 1 mps 745 mmHg 81%
    11:00 +31°C° 1.9 mm 1 mps 744 mmHg 78%
    12:00 +30°C° 1.9 mm 0 mps 744 mmHg 75%
    13:00 +30°C° 1.9 mm 0 mps 743 mmHg 72%
    14:00 +30°C° 0.3 mm 0 mps 743 mmHg 72%
    15:00 +32°C° 0.3 mm 1 mps 742 mmHg 72%
    16:00 +32°C° 0.3 mm 1 mps 742 mmHg 73%
    17:00 +30°C° 0.9 mm 1 mps 742 mmHg 79%
    18:00 +29°C° 0.9 mm 1 mps 743 mmHg 85%
    19:00 +27°C° 0.9 mm 1 mps 743 mmHg 91%
    20:00 +27°C° 0.4 mm 1 mps 744 mmHg 91%
    21:00 +27°C° 0.4 mm 1 mps 745 mmHg 92%
    22:00 +27°C° 0.4 mm 1 mps 745 mmHg 92%
    23:00 +26°C° 0.1 mm 1 mps 745 mmHg 92%

    Tomorrow, 14 December, Thursday

    Time Temperature Precipitation Wind Pressure Humidity
    00:00 +26°C° 0.1 mm 1 mps 745 mmHg 93%
    01:00 +26°C° 0.1 mm 1 mps 745 mmHg 94%
    02:00 +26°C° 0 mm 1 mps 745 mmHg 94%
    03:00 +25°C° 0 mm 1 mps 745 mmHg 95%
    04:00 +25°C° 0 mm 1 mps 744 mmHg 95%
    05:00 +26°C° 0 mm 1 mps 745 mmHg 95%
    06:00 +26°C° 0 mm 1 mps 745 mmHg 95%
    07:00 +26°C° 0 mm 1 mps 745 mmHg 94%
    08:00 +27°C° 0.4 mm 1 mps 745 mmHg 90%
    09:00 +29°C° 0.4 mm 1 mps 746 mmHg 85%
    10:00 +30°C° 0.4 mm 1 mps 746 mmHg 81%
    11:00 +31°C° 0.3 mm 2 mps 745 mmHg 76%
    12:00 +32°C° 0.3 mm 2 mps 744 mmHg 72%
    13:00 +34°C° 0.3 mm 2 mps 744 mmHg 67%
    14:00 +32°C° 0.4 mm 2 mps 743 mmHg 69%
    15:00 +32°C° 0.4 mm 2 mps 743 mmHg 71%
    16:00 +32°C° 0.4 mm 2 mps 742 mmHg 74%
    17:00 +30°C° 0 mm 1 mps 742 mmHg 78%
    18:00 +29°C° 0 mm 1 mps 743 mmHg 82%
    19:00 +26°C° 0 mm 0 mps 743 mmHg 86%
    20:00 +25°C° 0 mm 0 mps 743 mmHg 87%
    21:00 +25°C° 0 mm 0 mps 744 mmHg 89%
    22:00 +24°C° 0 mm 0 mps 744 mmHg 90%
    23:00 +24°C° 0.1 mm 0 mps 744 mmHg 91%

    Day after tomorrow, 15 December, Friday

    Time Temperature Precipitation Wind Pressure Humidity
    00:00 +24°C° 0.1 mm 0 mps 744 mmHg 92%
    01:00 +26°C° 0.1 mm 1 mps 743 mmHg 93%
    02:00 +25°C° 0 mm 1 mps 743 mmHg 94%
    03:00 +23°C° 0 mm 0 mps 743 mmHg 95%
    04:00 +23°C° 0 mm 0 mps 743 mmHg 96%
    05:00 +23°C° 0 mm 0 mps 744 mmHg 95%
    06:00 +24°C° 0 mm 0 mps 744 mmHg 94%
    07:00 +24°C° 0 mm 0 mps 744 mmHg 93%
    08:00 +28°C° 0 mm 1 mps 745 mmHg 86%
    09:00 +29°C° 0 mm 1 mps 745 mmHg 79%
    10:00 +31°C° 0 mm 1 mps 745 mmHg 72%
    11:00 +32°C° 0 mm 1 mps 744 mmHg 67%
    12:00 +34°C° 0 mm 1 mps 744 mmHg 62%
    13:00 +35°C° 0 mm 1 mps 743 mmHg 57%
    14:00 +35°C° 0.1 mm 1 mps 742 mmHg 58%
    15:00 +35°C° 0.1 mm 2 mps 741 mmHg 60%
    16:00 +35°C° 0.1 mm 2 mps 741 mmHg 62%
    17:00 +32°C° 0.9 mm 2 mps 741 mmHg 70%
    18:00 +30°C° 0.9 mm 2 mps 742 mmHg 79%
    19:00 +28°C° 0.9 mm 1 mps 742 mmHg 87%
    20:00 +27°C° 1.7 mm 1 mps 743 mmHg 90%
    21:00 +27°C° 1.7 mm 1 mps 744 mmHg 92%
    22:00 +26°C° 1.7 mm 1 mps 744 mmHg 95%
    23:00 +26°C° 1.1 mm 1 mps 744 mmHg 96%

    16 December, Saturday

    Time Temperature Precipitation Wind Pressure Humidity
    00:00 +26°C° 1.1 mm 1 mps 744 mmHg 96%
    01:00 +26°C° 1.1 mm 1 mps 744 mmHg 97%
    02:00 +25°C° 0.1 mm 1 mps 743 mmHg 97%
    03:00 +25°C° 0.1 mm 1 mps 743 mmHg 97%
    04:00 +25°C° 0.1 mm 1 mps 743 mmHg 97%
    05:00 +25°C° 0.2 mm 1 mps 743 mmHg 97%
    06:00 +26°C° 0.2 mm 1 mps 744 mmHg 96%
    07:00 +26°C° 0.2 mm 1 mps 744 mmHg 95%
    08:00 +27°C° 1.1 mm 1 mps 745 mmHg 92%
    09:00 +28°C° 1.1 mm 1 mps 745 mmHg 90%
    10:00 +28°C° 1.1 mm 1 mps 745 mmHg 87%
    11:00 +29°C° 1.2 mm 1 mps 744 mmHg 85%
    12:00 +29°C° 1.2 mm 1 mps 743 mmHg 83%
    13:00 +30°C° 1.2 mm 1 mps 743 mmHg 81%
    14:00 +30°C° 0.3 mm 1 mps 742 mmHg 79%
    15:00 +30°C° 0.3 mm 1 mps 742 mmHg 77%
    16:00 +30°C° 0.3 mm 1 mps 742 mmHg 76%
    17:00 +29°C° 0.3 mm 1 mps 742 mmHg 80%
    18:00 +28°C° 0.3 mm 1 mps 743 mmHg 85%
    19:00 +27°C° 0.3 mm 1 mps 743 mmHg 90%
    20:00 +26°C° 0 mm 1 mps 744 mmHg 91%
    21:00 +26°C° 0 mm 1 mps 744 mmHg 91%
    22:00 +26°C° 0 mm 1 mps 744 mmHg 92%
    23:00 +26°C° 0 mm 1 mps 744 mmHg 94%

    17 December, Sunday

    Time Temperature Precipitation Wind Pressure Humidity
    00:00 +25°C° 0 mm 1 mps 744 mmHg 95%
    01:00 +25°C° 0 mm 1 mps 744 mmHg 96%
    02:00 +25°C° 0.1 mm 1 mps 744 mmHg 97%
    03:00 +25°C° 0.1 mm 1 mps 744 mmHg 97%
    04:00 +25°C° 0.1 mm 1 mps 743 mmHg 97%
    05:00 +25°C° 0 mm 1 mps 744 mmHg 97%
    06:00 +26°C° 0 mm 1 mps 744 mmHg 96%
    07:00 +24°C° 0 mm 0 mps 745 mmHg 95%
    08:00 +28°C° 0.1 mm 1 mps 745 mmHg 87%
    09:00 +29°C° 0.1 mm 1 mps 745 mmHg 79%
    10:00 +31°C° 0.1 mm 1 mps 745 mmHg 71%
    11:00 +32°C° 0.1 mm 2 mps 744 mmHg 68%
    12:00 +34°C° 0.1 mm 2 mps 743 mmHg 64%
    13:00 +35°C° 0.1 mm 2 mps 743 mmHg 61%
    14:00 +34°C° 0.9 mm 2 mps 742 mmHg 66%
    15:00 +34°C° 0.9 mm 2 mps 742 mmHg 71%
    16:00 +32°C° 0.9 mm 2 mps 742 mmHg 75%
    17:00 +30°C° 0.8 mm 2 mps 742 mmHg 81%
    18:00 +29°C° 0.8 mm 2 mps 743 mmHg 86%
    19:00 +27°C° 0.8 mm 1 mps 743 mmHg 92%
    20:00 +27°C° 1.7 mm 1 mps 744 mmHg 93%
    21:00 +27°C° 1.7 mm 2 mps 744 mmHg 94%
    22:00 +26°C° 1.7 mm 2 mps 745 mmHg 95%
    23:00 +26°C° 0.3 mm 2 mps 744 mmHg 96%

    18 December, Monday

    Time Temperature Precipitation Wind Pressure Humidity
    00:00 +26°C° 0.3 mm 2 mps 744 mmHg 96%
    01:00 +26°C° 0.3 mm 2 mps 744 mmHg 97%
    02:00 +25°C° 0 mm 1 mps 744 mmHg 97%
    03:00 +25°C° 0 mm 1 mps 744 mmHg 98%
    04:00 +25°C° 0 mm 1 mps 744 mmHg 98%
    05:00 +25°C° 0 mm 1 mps 744 mmHg 97%
    06:00 +26°C° 0 mm 1 mps 745 mmHg 96%
    07:00 +24°C° 0 mm 0 mps 745 mmHg 96%
    08:00 +25°C° 0.1 mm 0 mps 745 mmHg 91%
    09:00 +26°C° 0.1 mm 0 mps 745 mmHg 86%
    10:00 +29°C° 0.1 mm 1 mps 746 mmHg 81%
    11:00 +31°C° 0.1 mm 1 mps 745 mmHg 75%
    12:00 +32°C° 0.1 mm 1 mps 744 mmHg 69%
    13:00 +33°C° 0.1 mm 1 mps 743 mmHg 63%
    14:00 +33°C° 0.2 mm 1 mps 743 mmHg 66%
    15:00 +32°C° 0.2 mm 1 mps 742 mmHg 68%
    16:00 +32°C° 0.2 mm 2 mps 742 mmHg 70%
    17:00 +30°C° 0.2 mm 1 mps 742 mmHg 77%
    18:00 +29°C° 0.2 mm 1 mps 742 mmHg 83%
    19:00 +27°C° 0.2 mm 1 mps 743 mmHg 90%
    20:00 +27°C° 0.3 mm 1 mps 743 mmHg 91%
    21:00 +27°C° 0.3 mm 1 mps 744 mmHg 92%
    22:00 +26°C° 0.3 mm 1 mps 744 mmHg 94%
    23:00 +26°C° 0.2 mm 1 mps 744 mmHg 95%
    Show more